GW0118 Weather Reports


time (UTC)temp
F
wind
direction
speed
knots
gust
knots
rain 1hr
in
rain 24hr
in
rain mn
in
humidity
%
barometer
mb
20260505230058 41 58 3.5 6.1 0.00 0.07 0.00 83 1014.1
20260505224603 42 101 0.9 4.3 0.00 0.07 0.00 81 1014.2
20260505223101 43 52 2.6 4.3 0.00 0.07 0.00 80 1014.1
20260505221604 42 55 1.7 4.3 0.00 0.07 0.00 81 1014.2
20260505214601 44 42 3.5 7.0 0.00 0.07 0.07 78 1014.3
20260505213059 44 54 4.3 7.8 0.00 0.07 0.07 77 1014.3
20260505211559 45 43 1.7 6.1 0.00 0.07 0.07 76 1014.4
20260505210059 45 50 5.2 10.4 0.00 0.07 0.07 75 1014.2
20260505204600 46 319 1.7 5.2 0.00 0.07 0.07 74 1014.1
20260505203121 47 352 4.3 7.8 0.00 0.07 0.07 72 1013.9
20260505201605 48 333 7.0 11.3 0.00 0.07 0.07 69 1013.6
20260505194600 50 336 2.6 7.0 0.00 0.07 0.07 65 1013.3
20260505193109 51 293 4.3 8.7 0.00 0.07 0.07 63 1013.0
20260505191612 51 354 2.6 10.4 0.00 0.07 0.07 63 1012.9
20260505190100 51 295 4.3 7.8 0.00 0.07 0.07 63 1012.7
20260505184602 52 349 4.3 7.8 0.00 0.07 0.07 64 1012.6
20260505181559 52 68 0.9 2.6 0.00 0.07 0.07 70 1012.4
20260505180103 50 115 1.7 4.3 0.00 0.07 0.07 72 1012.3
20260505174606 50 56 1.7 5.2 0.00 0.07 0.07 74 1012.3
20260505173101 50 94 1.7 4.3 0.00 0.07 0.07 72 1012.3
20260505171601 51 75 2.6 4.3 0.00 0.06 0.06 70 1012.2
20260505170111 51 41 4.3 9.6 0.00 0.06 0.06 65 1012.1
20260505164559 51 53 6.1 12.2 0.00 0.06 0.06 64 1012.3
20260505163103 51 349 7.0 12.2 0.00 0.06 0.06 65 1012.3
20260505161616 52 336 6.1 13.9 0.00 0.06 0.06 61 1012.3
20260505153108 54 1 2.6 6.1 0.00 0.06 0.06 60 1012.3
20260505150105 54 358 6.1 12.2 0.00 0.06 0.06 63 1012.5
20260505140114 51 49 6.1 10.4 0.05 0.06 0.06 73 1012.9
20260505130111 51 179 9.6 14.8 0.00 0.00 0.00 62 1012.6
20260505124611 51 57 4.3 8.7 0.00 0.00 0.00 72 1012.8
20260505123108 51 290 5.2 11.3 0.00 0.00 0.00 67 1012.9
20260505121631 53 38 5.2 13.9 0.00 0.00 0.00 65 1012.8
20260505120112 53 37 4.3 16.5 0.00 0.00 0.00 66 1012.9
20260505114600 55 197 1.7 10.4 0.00 0.00 0.00 56 1012.9
20260505113112 54 224 0.0 4.3 0.00 0.00 0.00 64 1013.1
20260505111608 52 30 1.7 4.3 0.00 0.00 0.00 67 1013.3
20260505110107 50 0 0.9 1.7 0.00 0.00 0.00 70 1013.4
20260505101601 49 275 3.5 7.0 0.00 0.00 0.00 68 1013.9
20260505094600 50 354 1.7 7.0 0.00 0.00 0.00 66 1013.7
20260505093059 50 339 2.6 4.3 0.00 0.00 0.00 66 1013.6
20260505091600 49 269 1.7 5.2 0.00 0.00 0.00 68 1013.8
20260505090107 49 255 3.5 6.1 0.00 0.00 0.00 70 1013.8
20260505084559 49 337 2.6 6.1 0.00 0.00 0.00 69 1013.9
20260505083105 47 316 1.7 7.8 0.00 0.00 0.00 73 1013.8
20260505081603 47 0 1.7 5.2 0.00 0.00 0.00 80 1013.8
20260505080059 46 54 1.7 4.3 0.00 0.00 0.00 82 1013.9
20260505074600 46 59 2.6 5.2 0.00 0.00 0.00 82 1013.8
20260505073100 46 60 0.9 4.3 0.00 0.00 0.00 82 1013.8
20260505071559 45 56 1.7 4.3 0.00 0.00 0.00 83 1013.5
20260505064600 45 46 0.9 4.3 0.00 0.00 0.00 84 1013.4
20260505063059 45 39 0.9 2.6 0.00 0.00 0.00 84 1013.4
20260505061610 45 110 0.9 2.6 0.00 0.00 0.00 84 1013.4
20260505060059 45 0 0.0 0.0 0.00 0.00 0.00 81 1013.2
20260505054601 45 0 0.0 0.9 0.00 0.00 0.00 80 1013.1
20260505053108 45 0 0.0 0.9 0.00 0.00 0.00 81 1013.1
20260505051558 45 0 0.0 1.7 0.00 0.00 0.00 79 1013.0
20260505041559 45 0 0.0 0.9 0.00 0.00 0.00 85 1013.0
20260505034559 46 0 0.0 0.0 0.00 0.00 0.00 84 1013.3
20260505033115 46 0 0.0 0.0 0.00 0.00 0.00 82 1013.2
20260505031601 46 153 0.0 0.0 0.00 0.00 0.00 82 1013.2
20260505030059 46 0 0.0 1.7 0.00 0.00 0.00 80 1013.3
20260505024609 46 264 0.0 1.7 0.00 0.00 0.00 81 1013.3
20260505023107 46 290 0.0 2.6 0.00 0.00 0.00 84 1013.4
20260505021559 45 0 0.0 2.6 0.00 0.00 0.00 88 1013.4
20260505020100 45 0 0.0 0.9 0.00 0.00 0.00 89 1013.4
20260505014559 45 0 0.0 0.0 0.00 0.00 0.00 89 1013.5
20260505013059 45 0 0.0 0.9 0.00 0.00 0.00 89 1013.6
20260505011601 44 0 0.0 0.0 0.00 0.00 0.00 88 1013.6
20260505004601 45 162 0.9 1.7 0.00 0.00 0.00 87 1013.9
20260505003102 45 139 0.9 1.7 0.00 0.00 0.00 87 1013.9
20260505001559 45 0 0.0 1.7 0.00 0.00 0.00 88 1014.2
20260504234624 45 86 0.0 1.7 0.00 0.00 0.00 86 1013.9
20260504233100 46 0 0.0 0.9 0.00 0.00 0.00 84 1013.9
20260504231605 46 109 0.0 0.9 0.00 0.00 0.00 83 1014.1